STARLINK-3783, 52282

Orbit data source: Space-Track

STARLINK-3783, 52282 is a payload satellite owned by SpaceX/Seattle (US) in LEO that was launched on Thu, 21 Apr 2022 UTC via an FALCON 9 launch vehicle from the Air Force Eastern Test Range (AFETR). Payload-class satellites include a variety of spacecraft equipped with specific instruments for various scientific and technological missions. These include communications satellites like Starlink; space stations such as the ISS; scientific satellites like the Hubble; Earth observation satellites from companies like Planet Labs, Umbra, and HawkEye 360; GPS; miniature CubeSats for education and research; and military/defense satellites.

Loading next visibility...
Identifier
52282, 2022-041X
Orbit
LEO
Country
Flag of USUS
Related business
Manufacturer
SpaceX/Seattle
Mission
Operational Commercial Communications
Bus & Motor
STARLINK, Unknown motor
Mass
297 kg wet, ~275 kg dry
Launch date (UTC)
2022-04-21 (4 years ago)
Launch vehicle
FALCON 9
Launch site
Air Force Eastern Test Range (AFETR)
Object type
Payload
Rocket body
Debris
Shape & HBR
Box + 1 Pan, 10.1 m
Radar Cross Section
11.087 m², Large (>1 m²)

Expand to show TLE details & history
Last TLE update: 8 hours ago

TLE from 8 hours ago
0 STARLINK-3783
1 52282U 22041X   26219.97665978  .00000131  00000-0  15313-4 0  9997
2 52282  53.1615 135.0237 0001211  71.0703 289.0430 15.33551251237409
Epoch: 2026-08-07T23:26Z
TLE epoch observation values (Epoch: 2026-08-07T23:26:23.404Z)
Latitude
-0.00008°
Longitude
-173.06851°
Altitude
465.858 km
Speed
7.635 km/s
True Right ascension
09h 00m 05s
True Declination
0° 00' 00"
Sunlit
Object was in daylight at epoch
Visualization orbit readout
Latitude
Unknown
Longitude
Unknown
Altitude
Unknown
Speed
Unknown
Apparent Right ascension
Unknown
Apparent Declination
Unknown
Sunlit
N/A
Visualization observer readout
Local Sidereal Time
21:08:07
Azimuth
Unknown
Elevation
Unknown
Doppler factor
Unknown
Orbital elements
Apogee altitude
466.312 km
Perigee altitude
464.655 km
Semi-major axis
6,843.621 km
Eccentricity
0.00012
Inclination
53.1615°
RAAN
135.0237°
Arg. of periapsis
71.0703°
True anomaly
289.02988°
Mean anomaly
289.043°
Eccentric anomaly
289.03644°
Mean motion
3.83367 °/min
Orbital period
93.9 mins
BSTAR
0.000015313
Loading maneuver chart data...
Computing Atmospheric mass density...
Loading historical data...
Loading historical data...
Loading historical data...
Loading historical data...
Loading historical data...
Loading historical data...
Loading historical data...

Documentation

Showing up to 5 results
|